Mona Airport

Jump to: basic info | weather | comments

Related pages: nearby airports | nearby navaids

Basic information (top)

Location: lon 18.075300, lat -67.931000, elev 1 ft / 0 m msl
Status: small_airport

Weather (top)

Current conditions for Punta Cana International Airport 38nm (71km) NW (rec'd 2015/04/21 14:00Z):

MDPC 211400Z 17010KT 9999 FEW022 29/22 Q1018 NOSIG

Airport forecast for Punta Cana International Airport 38nm (71km) NW (rec'd 2015/04/19 06:42Z):

TAF MDPC 190400Z 1906/2006 10004KT 9999 FEW018 PROB30 1918/1923 8000 RA BKN020 BKN070

Latest comments (top)

No comments yet for Mona Airport

More... (top)

See also NOTAMs and nearby airports and navaids, or visit the Mona Airport page at the main OurAirports website..